Simultaneous Nadir Overpasses (SNOs) Predictions

Prediction of SNOs between METOP-A and NOAA-19 Satellite Orbit:

Table of predicted SNOs for the next 14.0 days since TLE Epoch: 8/25/2018
Index Date (METOP-A) Time (METOP-A) Lat,Lon (METOP-A) SZA (METOP-A ) Date (NOAA-19) Time (NOAA-19) Lat,Lon (NOAA-19) SZA (NOAA-19 ) Distance(km) Time Diff (sec)
1 08/26/2018 01:07:32 -78.84, -7.36 111.57 08/26/2018 01:06:17 -78.85, -7.69 111.57 7.24 75
2 08/26/2018 01:58:12 78.83, 159.93 68.44 08/26/2018 01:57:21 78.82, 159.79 68.42 3.34 51
3 08/26/2018 02:48:53 -78.81, -32.84 111.57 08/26/2018 02:48:16 -78.81, -32.92 111.58 1.82 37
4 08/26/2018 03:39:33 78.81, 134.45 68.44 08/26/2018 03:39:21 78.81, 134.30 68.44 3.36 12
5 08/26/2018 04:30:15 -78.79, -58.31 111.57 08/26/2018 04:30:17 -78.81, -58.40 111.55 2.78 2
6 08/26/2018 05:20:55 78.79, 108.98 68.44 08/26/2018 05:21:21 78.78, 109.07 68.44 2.13 26
7 08/26/2018 06:11:37 -78.77, -83.78 111.57 08/26/2018 06:12:17 -78.77, -83.64 111.56 3.23 40
8 08/26/2018 07:02:17 78.76, 83.51 68.44 08/26/2018 07:03:22 78.78, 83.58 68.46 2.09 65
9 08/26/2018 07:53:05 -78.52,-110.63 111.84 08/26/2018 07:54:12 -78.56,-107.66 111.69 65.91 67
10 09/05/2018 22:07:06 78.85,-142.27 72.40 09/05/2018 22:05:59 78.85,-142.26 72.39 0.41 67
11 09/05/2018 22:57:48 -78.84, 25.00 107.61 09/05/2018 22:56:58 -78.86, 24.93 107.60 2.79 50
12 09/05/2018 23:48:28 78.83,-167.75 72.40 09/05/2018 23:48:00 78.85,-167.75 72.41 2.53 28
13 09/06/2018 00:39:10 -78.82, -0.47 107.61 09/06/2018 00:38:58 -78.82, -0.31 107.60 3.67 12
14 09/06/2018 01:29:49 78.84, 167.02 72.44 09/06/2018 01:30:00 78.81, 167.01 72.41 3.26 11
15 09/06/2018 02:20:31 -78.84, -25.71 107.56 09/06/2018 02:20:59 -78.82, -25.79 107.57 2.21 28
16 09/06/2018 03:11:11 78.82, 141.54 72.44 09/06/2018 03:12:01 78.81, 141.53 72.44 1.13 50
17 09/06/2018 04:01:53 -78.81, -51.19 107.56 09/06/2018 04:03:00 -78.82, -51.27 107.55 1.96 67




NCC Satellite Simultaneous Nadir Overpasses (SNOs) Prediction Service
